Tracking 19490 objects as of 24-Jan-2019
HD Live streaming from Space Station
objects crossing your sky now

FENGYUN 1C DEB

Track FENGYUN 1C DEB now!
10-day predictions


NORAD ID: 31767
Int'l Code: 1999-025CFS
Perigee: 858.5 km
Apogee: 918.3 km
Inclination: 99.1 °
Period: 102.6 minutes
Semi major axis: 7259 km
RCS: 0.0074 m2 (small)
Launch date: May 10, 1999
Source: People's Republic of China (PRC)
Launch site: Taiyaun Space Center, China (TSC)

Note: This is SATELLITE DEBRIS
aabbcc
Your satellite tracking list
Your tracking list is empty




NASA's NSSDC Master Catalog

Two Line Element Set (TLE):
1 31767U 99025CFS 19023.30415689 +.00000312 +00000-0 +22602-3 0  9991
2 31767 099.1222 051.9110 0041176 230.8858 190.9480 14.03630099595275
Source of the keplerian elements: AFSPC